BLOCK DM-SL R/B

Satellite information

Favourite Embed

Satellite Type and Status

ROCKET BODYIN ORBIT

Key statistics

Satellite BLOCK DM-SL R/B at a glance.

Uptime

8163

Days in orbit

Revolutions

≈ 2.2

Per day

Orbit

GTO

Geostationary Transfer Orbit

Inclination

0.8

Latest

Satellite identification and parameters

Extended collection of information and parameters for BLOCK DM-SL R/B.

Object identification

Identified? True

Debris? False

Object name: BLOCK DM-SL R/B

International designator: 2003-034B

Object number (NORAD): 27855

Object ID (CCSDS): 27855

Country: SEA LAUNCH DEMO (SEAL)

Current information (Y/N): Y

RCS size: LARGE

Orbital parameters

Period: 640.931 minutes

Inclination: 0.8244 deg

SMA: 24624.506 km

Apoapsis: 35791.035 km

Periapsis: 701.707 km

RAAN: 10.2917 deg

Eccentricy: 0.71248794

Argument of periapsis: 159.707 deg

Mean anomaly: 349.4501 deg

Mean motion: 2.24673303 rev/day

Mean motion (dot): 0.00000042 rev/day2

B* drag term: 0.001437492 1/REarth

Two-line elements (TLE)

Creation date: Dec. 12, 2025, 10:14 a.m.

Reference frame: TEME

Reference center: EARTH

Epoch: Dec. 12, 2025, 5:35 a.m. UTC

TLE line 0: 0 BLOCK DM-SL R/B

TLE line 1: 1 27855U 03034B 25346.23284106 .00000042 00000-0 14375-2 0 9991

TLE line 2: 2 27855 0.8244 10.2917 7124879 159.7070 349.4501 2.24673303183507

Live tracking on map

Real-time ground track for satellite BLOCK DM-SL R/B.

In-orbit conjunctions

A list of the most updated potential collisions computed for object BLOCK DM-SL R/B.

Target Orbit TCA Probability of collision Miss distance Type
EKRAN 6 OTHER 2025-06-22 18:50:49 TBA 2369.0 (m) PAYLOAD

Associated space launch

The EchoStar IX satellite is equipped with one of the first commercial Ka-band spot-beam payloads for use over the United States

BLOCK DM-SL R/B was lifted into orbit during the mission ‘Zenit | Echostar IX’, on board a Zenit space rocket.

The launch took place on Aug. 8, 2003, 3:30 a.m. from Launch Platform Odyssey.

For more information about the launch, click the button.

Launch to space Zenit | Echostar IX
Zenit | Echostar IX

Agency: N/A

Status: Launch Successful

Launch date: Aug. 8, 2003, 3:30 a.m. UTC

Rocket: Zenit

Launch pad: Launch Platform Odyssey

Location: Sea Launch

...

Latest news about this satellite

There are no fresh news available about this satellite. Check back as we update our databases every day.


Newsletter sign-up

Weekly statistics, charts and insights to help you stay on top of the space industry.